Location: Trani
(41.2830°N, 16.4170°E)
Time: 17:38:33
(UTC+02:00)

ISS - Pass Details

Date: 19 May 2021
Orbit: 417 x 422 km, 51.6° (Epoch: 18 June)

Event Time Altitude Azimuth Distance (km) Brightness Sun altitude
Rises 00:31:00 0° 308° (NW) 2,370 0.6 -28.8°
Reaches altitude 10° 00:33:39 10° 329° (NNW) 1,506 -0.2 -28.8°
Maximum altitude 00:35:56 17° 12° (NNE) 1,157 -0.8 -28.9°
Enters shadow 00:36:03 17° 15° (NNE) 1,158 -0.8 -28.9°
